Find Meteor

NORAD ID: 7209 Int'l Des: 1974-011 Owner: GUKOSR/GMS Country: SU operational
LEOCIRCULARPOLAR

实时位置

正在加载3D地球...

关于 Meteor

正在加载描述...

即将过境

Passes for default location (London). Set your location on the main map for personalized predictions.

高度历史

Loading altitude history...

两行轨道根数

1 7209U 74011A 26139.78238573 .00000050 00000-0 18975-4 0 9994
2 7209 81.2282 57.5809 0039527 121.8898 238.6131 14.14544136691227
Epoch: May 19, 2026 • Age: 7 hours

当前状态

高度 826.2 km
速度 7.46 km/s
星下点 62.86°N, 49.57°W
类型 other

Most Searched